sat.trackr.live / text

‹ back to catalog

STARLINK-31414

NORAD 59418 · 2024-064W

PAYLOAD ACTIVE UNKNOWN

§ Identity

Operator
Country
US
Launch date
2024-04-05
Launch site
AFETR
Launch vehicle
Mass (kg)
RCS (m²)

Purposes: comms

External: N2YO · Heavens-Above · Gunter

§ Orbital elements

Epoch: 2026-05-24T22:06:49.206240Z

Period
94.27 min
Inclination
43.0027°
Eccentricity
0.0001135
Mean motion
15.27571997 rev/d
Perigee alt
482.3 km
Apogee alt
483.9 km
Semi-major
6,861.2 km
B*
1.3531e-5
RAAN
345.7242°
Arg perigee
281.6974°
Mean anomaly
78.3750°
Rev number
12,088

§ Raw data

STARLINK-314141 59418U 24064W   26144.92140285  .00000110  00000+0  13531-4 0  99992 59418  43.0027 345.7242 0001135 281.6974  78.3750 15.27571997120881

JSON: /api/v1/satellites/59418 · /tle

For live sub-satellite position, see the globe view (requires WebGL).

§ Visibility from observer

Set your observer location to see the next 7 days of passes ≥ 10°. The values pass through the URL so the page stays shareable.

No JS? Fill the form by hand. The geolocation button needs JavaScript.